Location: Daytona Beach
(29.2106°N, 81.0231°W)
Time: 23:54:35
(UTC-04:00)

RS-15 - Pass Details

Date: 01 October 2021
Orbit: 1884 x 2160 km, 64.8° (Epoch: 21 October)

Event Time Altitude Azimuth Distance (km) Brightness Sun altitude
Rises 21:30:33 0° 337° (NNW) 5,601 10.9 -31.4°
Reaches altitude 10° 21:38:50 10° 11° (NNE) 4,652 10.0 -33.1°
Maximum altitude 21:41:50 11° 26° (NNE) 4,578 9.8 -33.8°
Drops below altitude 10° 21:44:50 10° 41° (NE) 4,674 9.8 -34.4°
Enters shadow 21:45:03 10° 42° (NE) 4,687 9.8 -34.4°
